User: anonymous   Login
Location: Unspecified
(0.0000°N, 0.0000°E)
Time: 12:23:50
(UTC+00:00)
Language:

CZ-3 Stage 3 - Orbit

View from above orbital plane
View from above orbital plane
View from above satellite
View from above satellite

Ground track
Ground track

The orbit data is extracted from the following two-line orbital elements,

1 14900U 84035B   19114.20090206 -.00000155 +00000-0 +70703-4 0  9992
2 14900 030.5098 177.9466 7133686 352.8675 000.9884 02.33876674230584
Epoch (UTC): 24 April 2019 04:49:17
Eccentricity: 0.7133686
inclination: 30.5098°
perigee height: 493 km
apogee height: 34698 km
right ascension of ascending node: 177.9466°
argument of perigee: 352.8675°
revolutions per day: 2.33876674
mean anomaly at epoch: 0.9884°
orbit number at epoch: 23058

The dashed part of the orbit path shows where the satellite is in the earth's shadow,  

DLR